Regional Weather Roundup
Issued by NWS

Home | Current Version | Previous Version | Text Only | Print | Product List | Glossary On
Versions: 1 2 3 4 5 6 7 8 9 10 11 12 13 14 15 16 17 18 19 20 21 22 23 24 25 26 27 28 29 30 31 32 33 34 35 36 37 38 39 40 41 42 43 44 45 46 47 48 49 50
000
ASUS44 KFWD 261515
RWRTX
NORTH TEXAS HOURLY WEATHER ROUNDUP
NATIONAL WEATHER SERVICE FORT WORTH TX
1000 AM CDT WED APR 26 2017

NOTE: "FAIR" INDICATES FEW OR NO CLOUDS BELOW 12,000 FEET WITH NO
SIGNIFICANT WEATHER AND/OR OBSTRUCTIONS TO VISIBILITY.

TXZ118-119-261600-
DALLAS/FORT WORTH METROPLEX

CITY           SKY/WX    TMP DP  RH WIND       PRES   REMARKS
DFW AIRPORT    CLOUDY    64  61  90 NW16      29.51R
DALLAS LOVE    CLOUDY    67  63  87 N14       29.51R
FTW MEACHAM    CLOUDY    67  60  78 N12       29.54R
DAL-EXECUTIVE  LGT RAIN  66  64  93 N12G21    29.49R FOG
FTW-ALLIANCE   CLOUDY    65  57  75 N10       29.54R
FTW-NAS-JRB    CLOUDY    67  57  70 N14       29.55R
FTW-SPINKS     CLOUDY    66  61  82 NW14      29.55R
ARLINGTON      CLOUDY    66  62  87 N13       29.52R
GRAND PRAIRIE  MOSUNNY   66  63  88 NW9G21    29.53R
ADDISON        PTSUNNY   63  59  88 NW7G18    29.51S
MESQUITE       CLOUDY    66  66 100 NW7       29.50S
LANCASTER      CLOUDY    72  69  90 CALM      29.49S
$$

TXZ091>094-102>105-117-120-121-131>134-261600-
NORTH CENTRAL TEXAS

CITY           SKY/WX    TMP DP  RH WIND       PRES   REMARKS
SHRMAN/DENISON CLOUDY    56  55  95 N12G17    29.56R FOG
GAINESVILLE    CLOUDY    54  50  85 N12       29.58R
BOWIE          CLOUDY    53  52  96 N8        29.59R
BRIDGEPORT     CLOUDY    56  50  82 N5        29.58R
DECATUR        CLOUDY    56  51  85 N6        29.58R
DENTON         CLOUDY    62  56  80 N12       29.55R
MCKINNEY       CLOUDY    63  63 100 N15       29.50F
BONHAM         CLOUDY    57  55  94 N13       29.52F
GREENVILLE     CLOUDY    72  66  83 CALM      29.51R
ROCKWALL       LGT RAIN  66  65  96 CALM      29.50S
TERRELL        CLOUDY    70  66  87 CALM      29.49S
WAXAHACHIE     PTSUNNY   74  73  95 S9        29.49S
CLEBURNE       CLOUDY    66  66 100 NW18      29.55R
GRANBURY       MOSUNNY   69  59  70 W9        29.57R
$$

TXZ083>090-098>101-113>116-127>130-139>142-154-155-261600-
WESTERN NORTH TEXAS

CITY           SKY/WX    TMP DP  RH WIND       PRES   REMARKS
WICHITA FALLS  CLOUDY    51  43  74 N25G35    29.65R
VERNON         CLOUDY    51  41  67 N21G28    29.72R
ABILENE        LGT RAIN  67  52  58 NW13      29.65R
ABILENE-DYESS  SUNNY     69  46  45 NW21      29.64R
GRAHAM         CLOUDY    56  51  83 NW12G23   29.63R
BRECKENRIDGE   PTSUNNY   62  52  69 NW16G26   29.64R
CISCO          SUNNY     64  55  72 W5        29.59S
RANGER         MOSUNNY   62  56  80 CALM      29.58S
MINERAL WELLS  CLOUDY    60  53  77 N6        29.55R
STEPHENVILLE   PTSUNNY   66  57  73 NW8       29.59R
COMANCHE       PTSUNNY   65  58  79 NW7       29.59R
BROWNWOOD      SUNNY     68  55  64 W6        29.60S
COLEMAN        SUNNY     70  52  53 W9        29.63R
$$

TXZ143>147-156>162-174-175-261600-
CENTRAL TEXAS

CITY           SKY/WX    TMP DP  RH WIND       PRES   REMARKS
WACO           SUNNY     79  70  74 SW16      29.49R
WACO-TSTC      SUNNY     79  70  73 S14G22    29.49
WACO-MCGREGOR  SUNNY     80  70  71 SW15G23   29.50R
HILLSBORO      MOSUNNY   77  71  82 S14       29.49R
CORSICANA      CLOUDY    79  69  71 S14G23    29.50R
MEXIA          PTSUNNY   77  69  74 S13G24    29.49S
HEARNE         MOSUNNY   79  71  78 S13       29.53S
CAMERON        MOSUNNY   80  69  69 SW15G22   29.51S
TEMPLE         SUNNY     79  70  74 S15       29.51S
KILLEEN        SUNNY     79  69  70 SW14      29.51R
KILLEEN-SKYLRK MOSUNNY   80  70  71 SW14      29.52R
FORT HOOD      SUNNY     78  69  72 SW15G22   29.49R
GATESVILLE     MOSUNNY   79  70  73 W12G17    29.54R
HAMILTON       SUNNY     73  60  62 NW15      29.56R
LAMPASAS       SUNNY     78  68  71 NW12G17   29.55R
$$

TXZ095>097-106>112-122>126-135>138-148>153-164>167-261600-
EAST TEXAS

CITY           SKY/WX    TMP DP  RH WIND       PRES   REMARKS
PARIS          CLOUDY    64  61  88 NW10      29.53R THUNDER
SULPHUR SPRNGS LGT RAIN  69  68  96 W13       29.52R
MOUNT PLEASANT CLOUDY    74  68  82 S12       29.49F
GILMER         PTSUNNY   76  68  76 S16G26    29.49F
MINEOLA        CLOUDY    75  68  78 S10G17    29.49R
TYLER          CLOUDY    76  69  79 S17G23    29.49F
LONGVIEW       PTSUNNY   77  70  79 S13       29.53F
MARSHALL       CLOUDY    73  68  85 S8        29.56F
ATHENS         CLOUDY    75  66  73 S9G20     29.48S
PALESTINE      MOSUNNY   78  70  74 S13G24    29.52R
JACKSONVILLE   PTSUNNY   75  70  86 S12       29.56F
HENDERSON      CLOUDY    75  68  79 S9        29.55F
CENTER         CLOUDY    78  71  80 S8        29.61R
NACOGDOCHES    PTSUNNY   73  68  83 S8        29.55F
LUFKIN         CLOUDY    74  71  91 SE6       29.57R
$$

SUPPLEMENTAL OBSERVATIONS (CENTRAL)

CITY           SKY/WX    TMP DP  RH WIND       PRES   REMARKS
DENISON DAM      N/A     55  52  88 N15         N/A
CADDO GRASSLND   N/A     59  55  88 N5          N/A
PAT MAYSE LAKE   N/A    N/A N/A N/A SW7         N/A
ATHENS           N/A     77  66  69 S14G22      N/A
MCGREGOR         N/A     81  72  74 SW7G21      N/A
TEMPLE           N/A     81  70  69 S7G20       N/A
$$

SUPPLEMENTAL OBSERVATIONS (WEST)

CITY           SKY/WX    TMP DP  RH WIND       PRES   REMARKS
MILLERS CREEK    N/A     52  45  76 N17G28      N/A
POSSUM KINGDOM   N/A     61  54  77 NW15G25     N/A
LBJ GRASSLAND    N/A     57  52  82 VRB5G14     N/A
GRANBURY         N/A     66  57  72 NW12G22     N/A
HAMBY            N/A     64  50  59 N12         N/A
IVIE RESERVOIR   N/A     72  48  43 W16         N/A
COLORADO BEND    N/A     77  57  50 N10G18      N/A
$$

SUPPLEMENTAL OBSERVATIONS (EAST)

CITY           SKY/WX    TMP DP  RH WIND       PRES   REMARKS
CLARKSVILLE      N/A     66  64  94 W1G14       N/A
TEXARKANA        N/A     72  66  83 SE7G16      N/A
LINDEN           N/A     77  70  78 S6G14       N/A
CADDO LAKE       N/A     77  70  78 S6          N/A
GILMER           N/A     77  68  73 S10G23      N/A
HENDERSON        N/A     75  68  78 S10         N/A
LUFKIN           N/A     75  70  83 MISG        N/A
N SABINE NF      N/A     73  68  83 MISG        N/A
S SABINE NF      N/A     75  68  78 W2          N/A
$$

SUPPLEMENTAL OBSERVATIONS ARE A COLLECTION OF AUTOMATED INSTRUMENTS
THAT ARE MAINTAINED BY A VARIETY OF FEDERAL AND STATE AGENCIES.
CERTAIN ELEMENTS...SUCH AS HUMIDITY VALUES AND SUSTAINED WIND
SPEEDS...MAY BE APPROXIMATED.





USA.gov is the U.S. government's official web portal to all federal, state and local government web resources and services.